Weather History for Wheeler AAF, HI

Change the Weather History Date:

Saturday, February 16, 2013

  Actual Average Record
Temperature  
Mean Temperature 68 °F -  
Max Temperature 73 °F 74 °F 79 °F (2011)
Min Temperature 64 °F 61 °F 57 °F (2008)
Cooling Degree Days 4    
Growing Degree Days 18 (Base 50)    
Moisture  
Dew Point 60 °F    
Average Humidity 78    
Maximum Humidity 94    
Minimum Humidity 57    
Precipitation  
Precipitation 0.19 in - - ()
Sea Level Pressure  
Sea Level Pressure 30.09 in    
Wind  
Wind Speed 10 mph (ENE)    
Max Wind Speed 22 mph    
Max Gust Speed 38 mph    
Visibility 10 miles    
Events Rain    
Averages and records for this station are not official NWS values.
T = Trace of Precipitation, MM = Missing Value Source: NWS Daily Summary

Daily Weather History Graph

Daily Weather History Graph

Search for Another Location

Airport:

Trip Planner

Search our weather history database for the weather conditions in past years. The results will help you decide how hot, cold, wet, or windy it might be!

Date:

Astronomy

Feb. 16, 2013 Rise Set
Actual Time 7:01 AM HST 6:30 PM HST
Civil Twilight 6:39 AM HST 6:53 PM HST
Nautical Twilight 6:13 AM HST 7:19 PM HST
Astronomical Twilight 5:47 AM HST 7:45 PM HST
Moon 11:16 AM HST (2/16) No Moon Set
Length of Visible Light 12h 14m
Length of Day
11h 28m
Waxing Crescent, 41% of the Moon is Illuminated
Feb 16
Waxing Crescent
Feb 17
First Quarter
Feb 25
Full
Mar 4
Last Quarter
Mar 11
New

Hourly Weather History & Observations

Time (HST) Temp. Dew Point Humidity Pressure Visibility Wind Dir Wind Speed Gust Speed Precip Events Conditions
12:12 AM 66.2 °F 60.8 °F 83% 30.10 in 10.0 mi East 10.4 mph - N/A   Light Drizzle
12:55 AM 66.0 °F 62.1 °F 87% 30.09 in 5.0 mi NE 9.2 mph - 0.04 in Rain Light Rain
1:38 AM 66.2 °F 62.6 °F 88% 30.08 in 9.0 mi ENE 11.5 mph - N/A   Partly Cloudy
1:39 AM 66.2 °F 62.6 °F 88% 30.08 in 10.0 mi ENE 10.4 mph - N/A   Light Drizzle
1:53 AM 66.2 °F 62.6 °F 88% 30.08 in 10.0 mi East 6.9 mph - N/A   Partly Cloudy
1:55 AM 65.7 °F 62.4 °F 89% 30.08 in 10.0 mi East 5.8 mph - 0.02 in Rain Light Rain
2:48 AM 66.2 °F 62.6 °F 88% 30.07 in 10.0 mi ENE 6.9 mph - N/A   Partly Cloudy
2:50 AM 66.2 °F 62.6 °F 88% 30.07 in 10.0 mi ENE 8.1 mph - N/A   Light Drizzle
2:55 AM 65.3 °F 62.1 °F 89% 30.06 in 9.0 mi ENE 8.1 mph - 0.04 in   Light Drizzle
3:01 AM 64.4 °F 62.6 °F 94% 30.06 in 10.0 mi ENE 8.1 mph - N/A   Partly Cloudy
3:29 AM 64.4 °F 60.8 °F 88% 30.06 in 9.0 mi ENE 8.1 mph - N/A   Light Drizzle
3:43 AM 64.4 °F 60.8 °F 88% 30.06 in 10.0 mi East 9.2 mph - N/A   Clear
3:52 AM 66.2 °F 60.8 °F 83% 30.06 in 10.0 mi ENE 11.5 mph - N/A   Light Drizzle
3:55 AM 65.3 °F 61.0 °F 86% 30.06 in 10.0 mi ENE 13.8 mph - 0.00 in   Light Drizzle
4:29 AM 64.4 °F 60.8 °F 88% 30.06 in 10.0 mi ENE 9.2 mph - N/A   Partly Cloudy
4:33 AM 66.2 °F 60.8 °F 83% 30.06 in 10.0 mi East 10.4 mph - N/A Rain Light Rain
4:49 AM 66.2 °F 60.8 °F 83% 30.06 in 10.0 mi ENE 11.5 mph - N/A   Partly Cloudy
4:50 AM 66.2 °F 60.8 °F 83% 30.06 in 10.0 mi ENE 10.4 mph - N/A   Light Drizzle
4:55 AM 65.8 °F 61.0 °F 84% 30.06 in 10.0 mi ENE 9.2 mph - 0.01 in   Light Drizzle
5:55 AM 65.1 °F 61.0 °F 86% 30.08 in 7.0 mi NE 8.1 mph - 0.02 in Rain Light Rain
6:55 AM 65.7 °F 60.6 °F 84% 30.09 in 8.0 mi ENE 11.5 mph - 0.02 in Rain Light Rain
7:55 AM 65.5 °F 61.3 °F 86% 30.11 in 5.0 mi ENE 8.1 mph - 0.03 in Rain Light Rain
8:44 AM 66.2 °F 60.8 °F 83% 30.12 in 10.0 mi East 9.2 mph - N/A   Scattered Clouds
8:55 AM 66.7 °F 60.6 °F 81% 30.12 in 10.0 mi ENE 10.4 mph - 0.01 in   Mostly Cloudy
9:00 AM 66.2 °F 60.8 °F 83% 30.13 in 10.0 mi ENE 11.5 mph - N/A   Light Drizzle
9:12 AM 66.2 °F 60.8 °F 83% 30.12 in 10.0 mi NE 15.0 mph - N/A   Mostly Cloudy
9:33 AM 66.2 °F 59.0 °F 78% 30.14 in 10.0 mi ENE 9.2 mph - N/A   Light Drizzle
9:53 AM 68.0 °F 59.0 °F 73% 30.14 in 10.0 mi NE 6.9 mph - N/A   Overcast
9:55 AM 67.6 °F 58.5 °F 72% 30.13 in 10.0 mi NE 10.4 mph - 0.00 in   Overcast
10:55 AM 70.0 °F 59.0 °F 68% 30.12 in 10.0 mi ENE 11.5 mph - N/A   Mostly Cloudy
11:55 AM 71.1 °F 59.4 °F 66% 30.10 in 10.0 mi East 12.7 mph 17.3 mph N/A   Scattered Clouds
12:55 PM 70.7 °F 58.6 °F 66% 30.08 in 10.0 mi Variable 6.9 mph - N/A   Overcast
1:55 PM 71.4 °F 58.1 °F 63% 30.06 in 10.0 mi East 6.9 mph - N/A   Mostly Cloudy
2:55 PM 73.2 °F 57.9 °F 59% 30.04 in 10.0 mi NE 12.7 mph 17.3 mph N/A   Scattered Clouds
3:55 PM 73.0 °F 58.3 °F 60% 30.04 in 10.0 mi East 11.5 mph 20.7 mph N/A   Scattered Clouds
4:55 PM 71.8 °F 55.8 °F 57% 30.06 in 10.0 mi ENE 12.7 mph 18.4 mph N/A   Scattered Clouds
5:55 PM 70.2 °F 56.7 °F 62% 30.08 in 10.0 mi NE 8.1 mph - N/A   Scattered Clouds
6:55 PM 68.2 °F 56.7 °F 67% 30.09 in 10.0 mi NNE 3.5 mph - N/A   Partly Cloudy
7:55 PM 68.0 °F 54.5 °F 62% 30.12 in 10.0 mi East 6.9 mph - N/A   Clear
8:55 PM 67.8 °F 54.7 °F 63% 30.13 in 10.0 mi East 8.1 mph 18.4 mph N/A   Partly Cloudy
9:15 PM 68.0 °F 55.4 °F 64% 30.13 in 10.0 mi Calm Calm - N/A   Light Drizzle
9:32 PM 66.2 °F 57.2 °F 73% 30.13 in 10.0 mi Calm Calm - N/A   Mostly Cloudy
9:55 PM 67.1 °F 57.6 °F 71% 30.13 in 10.0 mi ENE 6.9 mph - 0.00 in   Overcast
10:55 PM 68.2 °F 56.8 °F 67% 30.11 in 10.0 mi ENE 21.9 mph 25.3 mph N/A   Mostly Cloudy
11:55 PM 67.6 °F 56.8 °F 68% 30.09 in 10.0 mi ENE 21.9 mph 38.0 mph N/A   Partly Cloudy